Temperature
26 23 22 23 24 25 25 26 26 27 27 26 24 23 22 22 22 20 19 19 18 19 19 19 19 18 18 18 18 18 18 18 18 18 18 18 17 17 17 17 17 17 17 16
23 23 25 26 26 27 26 26 26 26 27 25 23 22 22 22 21 21 20 19 19 18 18 18 18 18 18 17 18 18 18 18 18 18 18 18 18 17 17 17 17 17 16 16
23 24 27 27 27 27 27 26 26 26 25 23 23 22 21 21 21 21 20 19 19 19 18 18 18 18 18 17 18 18 18 18 18 18 18 17 17 17 17 17 17 16 16 16
24 26 27 27 27 27 26 27 27 26 23 21 22 20 20 20 20 20 20 19 19 19 19 18 18 18 18 18 18 18 18 18 18 18 17 17 17 17 17 17 17 16 16 16
24 26 26 26 27 28 27 27 26 24 21 20 20 20 19 19 20 20 19 19 19 19 19 18 18 18 18 18 18 18 18 18 17 17 17 17 17 17 17 17 17 16 16 16
25 26 27 27 28 28 27 25 23 19 18 20 20 20 19 19 20 20 20 19 19 19 19 19 18 18 18 18 18 18 17 17 17 17 17 17 17 17 17 17 17 16 16 16
24 26 27 27 26 26 26 23 21 21 19 19 19 19 19 20 21 20 20 20 19 19 19 19 18 18 18 18 18 18 18 17 17 17 17 17 17 17 17 17 17 17 16 16
22 23 25 26 26 25 25 23 21 21 20 19 19 19 19 21 21 21 21 20 20 19 19 19 19 18 18 18 18 18 18 18 18 17 17 17 17 17 17 17 17 17 17 16
22 23 26 27 28 27 25 23 21 20 20 19 19 19 20 21 21 21 20 20 20 19 19 19 19 19 18 18 18 18 18 18 18 17 17 17 17 17 17 17 17 17 17 17
23 23 25 27 27 26 25 23 20 20 20 20 20 19 19 20 20 20 20 20 20 20 20 20 19 19 19 19 18 18 18 18 18 18 17 17 17 17 17 17 17 17 17 17
23 22 24 24 25 25 24 23 21 19 19 19 19 19 21 20 20 20 20 20 21 20 20 20 20 20 19 19 19 18 18 18 18 18 18 17 18 17 17 17 17 17 17 17
23 21 21 22 24 25 24 22 20 20 20 19 19 19 22 20 20 20 20 21 21 21 21 20 20 20 19 19 19 19 19 18 18 18 18 18 18 17 17 17 17 17 17 17
23 20 20 21 22 23 23 22 20 18 18 18 19 20 21 20 20 20 21 21 21 21 20 20 20 20 20 19 19 19 19 19 19 18 18 18 18 18 18 18 17 17 17 17
22 20 20 21 21 22 22 23 21 19 18 19 20 20 20 20 19 20 21 21 21 20 20 20 20 20 20 20 19 19 19 19 19 18 18 18 18 18 18 18 18 18 17 17
20 19 20 21 22 22 23 23 23 21 20 20 20 20 20 19 19 20 20 20 20 20 20 20 20 20 20 20 19 19 19 19 19 19 18 18 18 18 18 18 18 17 17 17
18 19 19 21 23 23 23 24 23 23 22 21 21 20 19 19 20 20 19 19 19 19 19 19 19 19 20 20 19 19 19 19 19 18 18 18 18 18 18 17 17 17 17 17
17 18 19 19 21 22 21 22 23 23 23 22 21 20 18 18 18 18 18 18 18 18 18 19 19 19 19 19 19 19 18 18 18 18 17 17 17 17 17 17 17 17 16 16
17 17 16 17 19 20 21 21 22 22 21 21 20 19 18 17 17 17 18 18 17 17 18 18 18 19 18 18 18 18 18 18 17 17 17 17 17 17 16 16 16 16 16 15
16 16 16 16 18 19 20 20 20 20 19 19 19 18 17 16 16 15 16 17 17 17 17 17 17 17 17 17 17 17 17 17 16 16 16 16 16 16 15 15 15 15 14 14
15 15 16 16 18 18 19 19 20 20 18 18 18 17 17 17 15 14 15 16 16 16 16 16 16 16 16 16 16 16 16 15 15 15 14 14 15 14 14 14 14 14 13 13
15 15 16 16 17 18 17 18 19 19 18 18 18 17 17 16 16 14 14 15 15 15 15 15 15 15 15 15 15 15 15 14 14 13 14 14 13 13 13 13 13 13 13 13
15 15 15 15 16 17 16 17 17 17 17 17 17 17 17 16 15 14 14 14 14 14 14 15 15 14 14 14 15 14 13 13 13 13 13 13 12 12 12 12 12 12 12 12
14 14 14 14 15 15 15 16 17 17 17 17 17 17 16 15 14 14 14 14 14 14 14 14 14 13 13 13 13 13 12 12 12 12 12 12 12 11 11 11 11 11 11 11
14 13 13 14 14 14 15 16 17 17 17 17 17 16 16 14 14 13 13 13 13 13 13 13 13 13 12 12 12 12 12 11 11 11 11 11 11 11 11 11 11 10 10 10
14 13 13 14 14 14 15 16 16 17 17 16 16 16 15 14 13 13 13 13 13 13 12 13 12 12 12 11 11 11 11 11 11 11 11 11 10 10 10 10 10 10 9 9
13 13 14 14 14 14 14 15 16 16 15 15 15 14 14 14 14 13 13 13 12 12 12 12 12 11 11 11 11 11 11 11 11 10 10 10 10 10 10 10 9 9 9 8
Wind_Speed
4 2 8 12 10 12 12 11 9 8 3 2 2 3 4 6 7 10 10 11 10 9 7 8 8 10 11 10 11 12 11 9 9 8 8 7 6 5 4 4 7 8 8 8
5 9 16 13 15 15 13 10 8 5 3 4 3 2 3 5 7 9 12 12 12 9 8 8 8 8 11 12 12 13 12 11 9 8 6 5 6 4 4 3 5 7 8 7
11 13 11 13 15 13 12 8 5 3 4 7 4 3 2 1 1 4 8 10 12 14 13 11 11 10 10 12 13 13 12 10 9 8 6 6 5 4 3 3 3 4 8 8
10 14 14 15 16 12 10 7 3 0 3 3 3 1 5 3 1 3 6 8 10 11 11 11 11 11 11 11 10 10 11 10 9 9 9 10 7 6 5 5 4 4 6 7
9 8 9 13 14 11 9 5 2 3 5 3 3 2 7 2 2 4 6 9 11 12 12 12 12 12 11 10 10 10 11 10 9 9 10 9 7 5 4 4 6 5 4 5
14 12 9 11 13 9 5 4 6 6 6 3 2 2 5 4 5 5 6 10 11 12 12 10 9 9 8 8 9 11 11 10 10 10 9 10 10 8 7 6 6 5 3 3
12 14 12 10 11 11 3 4 5 6 5 3 2 2 7 8 7 6 8 11 12 12 12 11 11 11 10 10 11 11 12 11 10 10 9 10 10 10 10 8 7 6 4 4
8 10 9 7 9 8 5 7 6 5 4 3 1 4 7 8 5 3 6 9 12 12 12 13 13 12 11 12 12 12 13 11 11 11 9 8 9 7 6 7 7 7 6 6
9 9 8 8 7 6 4 4 8 7 2 1 2 4 7 4 1 1 4 8 11 13 13 13 12 12 12 12 12 13 13 11 11 11 9 8 8 8 7 7 6 6 6 6
11 8 9 6 3 3 6 6 5 5 4 2 2 4 5 6 5 5 6 7 9 11 12 13 13 12 12 12 12 12 12 13 11 11 10 9 8 8 8 7 7 7 7 6
8 9 8 3 5 7 1 2 4 4 6 6 4 6 7 10 9 8 9 8 8 10 12 13 12 12 12 11 12 12 12 11 11 11 10 9 8 7 7 7 7 7 6 7
3 6 7 8 6 4 5 6 7 5 4 6 6 6 5 8 8 7 8 8 8 8 9 11 11 10 10 11 12 12 12 12 11 10 9 9 8 7 7 7 7 7 7 7
3 4 1 5 5 2 2 4 6 7 5 5 5 6 3 5 5 6 7 7 7 8 8 9 9 10 10 11 11 12 12 12 10 10 9 9 8 8 8 8 7 7 7 7
2 2 6 9 9 6 5 5 7 7 5 5 7 7 6 7 7 6 6 8 8 8 9 9 9 9 9 9 10 11 11 10 10 9 9 8 8 8 8 7 7 7 7 8
5 1 3 6 6 6 6 8 9 7 9 8 8 10 12 12 11 9 7 8 9 8 8 8 8 8 8 8 8 8 8 8 9 8 8 8 7 6 6 5 5 5 5 6
3 2 5 5 3 2 4 7 8 7 6 6 6 6 6 7 6 7 7 10 10 8 7 7 7 7 7 7 7 7 7 6 7 7 6 5 4 4 3 2 2 2 2 3
0 1 2 5 5 2 4 6 6 4 5 8 8 8 8 7 8 9 10 10 10 9 8 7 7 6 6 6 7 7 7 7 8 7 5 5 5 5 3 3 2 1 1 0
5 3 3 2 2 5 7 2 1 3 0 4 7 9 12 11 9 8 8 11 11 10 10 8 8 8 7 8 8 9 10 11 10 9 7 6 5 5 4 4 3 1 1 1
5 7 4 3 4 6 5 2 1 2 1 3 13 15 15 16 13 9 7 11 12 11 10 9 9 10 10 10 10 13 12 12 11 10 8 6 6 6 6 5 4 2 2 3
3 3 5 4 4 6 5 4 2 4 1 1 12 17 14 9 6 5 8 13 14 13 12 11 11 13 12 10 11 14 13 12 11 9 8 7 7 7 6 5 4 3 3 4
2 2 3 5 5 5 3 6 2 4 6 5 9 13 11 4 6 12 13 14 15 14 13 13 13 13 10 9 13 14 12 10 8 7 7 7 7 6 6 5 4 4 5 6
3 3 3 4 4 6 2 2 2 4 2 5 8 10 11 13 17 15 15 15 15 15 13 13 13 12 9 9 13 13 10 7 7 8 8 7 6 6 6 6 6 5 6 6
3 4 3 4 5 3 2 2 2 2 3 4 7 12 18 19 17 16 14 14 14 13 12 11 13 12 9 9 10 11 7 7 8 8 7 6 6 5 5 5 5 4 4 3
3 2 2 1 3 3 2 0 2 2 4 6 11 16 18 18 17 16 15 13 13 12 11 10 12 12 9 8 8 8 7 7 8 8 6 5 5 6 5 4 4 3 3 2
4 2 1 1 2 1 2 2 5 8 9 11 13 15 16 19 17 15 14 13 12 11 9 9 10 10 8 8 8 7 7 8 8 7 6 5 5 5 4 4 3 3 1 2
3 4 3 3 2 2 2 4 10 12 12 15 17 15 14 16 17 15 13 10 11 10 10 10 10 9 8 8 7 6 6 7 7 6 6 5 4 4 4 4 5 7 5 7
Wind_Direction
254 206 249 251 237 238 263 280 288 287 264 120 115 132 172 164 156 160 161 158 163 166 164 159 157 163 160 163 160 156 159 155 148 143 141 140 139 139 135 145 138 130 123 116
299 263 253 261 270 270 273 285 288 306 21 77 88 103 190 178 180 177 167 163 158 154 158 162 160 169 168 169 168 164 163 161 158 153 148 144 139 145 145 140 136 137 129 123
233 253 268 276 280 278 280 268 256 257 70 50 72 18 279 269 189 161 163 166 162 167 171 171 171 178 173 175 174 168 166 163 158 149 132 124 108 100 105 129 141 148 138 127
244 256 265 274 278 276 279 272 251 25 66 11 54 303 286 286 313 189 168 169 173 171 171 174 175 179 179 178 173 165 165 163 158 152 149 149 150 157 175 169 164 156 149 141
244 256 268 273 275 284 276 288 26 69 100 69 19 102 295 326 272 244 198 181 177 175 174 177 179 180 178 174 171 169 166 164 163 161 161 157 156 162 157 153 155 158 156 158
245 259 257 264 281 287 291 12 39 49 67 33 290 151 276 250 234 240 207 189 181 177 176 177 180 173 173 174 173 169 167 171 172 167 166 165 165 160 156 163 167 169 168 171
263 268 264 264 280 297 324 63 14 349 6 262 243 189 252 255 260 241 214 196 184 177 174 174 176 177 179 179 177 173 174 178 176 171 171 173 170 167 170 172 175 172 175 188
228 268 255 239 226 233 255 149 169 218 230 253 268 242 261 276 277 241 196 182 173 174 175 179 183 182 183 180 177 176 178 179 176 175 178 176 170 171 176 176 176 181 189 196
202 241 248 236 240 196 223 230 182 152 164 128 259 286 303 308 318 147 160 166 174 178 180 183 184 182 182 181 179 179 178 176 178 177 178 181 177 176 182 184 183 188 194 197
185 229 262 251 276 289 171 172 105 125 158 195 237 245 236 242 226 203 186 189 185 181 182 183 185 185 184 181 179 178 176 179 178 180 185 190 187 186 186 182 190 194 196 194
189 200 262 290 211 229 198 134 130 140 155 153 200 250 224 209 203 199 199 194 183 180 182 184 185 184 180 177 177 176 177 177 180 184 188 188 187 189 189 192 201 200 197 192
223 176 237 253 252 213 179 174 151 157 205 164 168 247 248 189 185 191 195 181 176 175 177 179 178 176 177 181 182 181 181 184 186 186 186 189 190 191 198 207 210 203 199 198
347 128 203 318 323 345 135 161 151 136 130 159 165 240 231 178 178 190 187 172 166 167 165 164 167 172 178 183 184 185 187 190 187 182 183 188 191 194 203 211 212 206 202 202
33 148 187 214 224 207 206 198 164 135 155 196 202 198 200 189 187 192 184 169 153 158 163 162 167 172 173 177 179 182 185 185 181 177 180 189 198 202 207 207 208 209 204 203
39 12 274 253 228 204 209 205 189 178 179 183 206 189 200 191 188 185 173 155 141 147 153 158 162 163 161 164 168 172 175 176 172 168 177 193 201 205 209 211 215 216 214 215
33 8 342 311 271 251 241 218 200 196 187 189 176 206 204 165 150 151 146 139 133 135 142 141 142 147 153 156 158 159 160 163 153 157 171 177 175 178 182 182 180 179 209 222
221 97 2 291 296 345 261 235 210 198 191 170 185 198 148 137 144 150 141 130 128 127 120 116 119 131 138 138 135 133 133 119 110 111 110 119 127 123 123 114 95 104 207 190
171 154 169 244 352 236 242 282 122 134 132 164 145 143 134 124 105 89 112 121 118 114 105 96 97 101 101 102 101 99 97 96 96 95 93 97 107 110 96 84 75 44 39 79
177 160 157 167 217 263 288 326 70 111 22 127 131 126 118 113 90 70 83 107 110 106 101 94 91 93 91 92 96 94 88 87 86 83 80 78 88 89 80 74 60 43 45 35
51 125 150 164 189 225 248 308 313 99 111 205 136 138 137 124 125 146 121 108 102 97 96 93 87 85 84 83 90 89 85 82 80 79 75 70 71 78 77 73 66 49 52 44
3 23 162 181 211 242 277 314 345 155 204 196 154 146 143 151 150 138 123 109 106 101 97 94 90 85 82 84 89 88 85 84 86 85 79 71 70 76 76 66 61 61 62 58
194 190 197 170 200 235 298 20 167 198 178 159 151 140 125 116 118 121 118 114 111 106 100 98 95 89 81 81 89 88 83 82 80 77 71 65 60 65 72 69 60 55 59 61
215 204 194 194 207 251 258 207 215 173 133 139 142 130 127 128 128 125 119 116 112 109 105 100 100 94 83 80 89 93 88 81 76 71 66 59 52 52 59 68 65 56 57 66
262 223 185 224 256 264 308 47 102 122 124 135 132 129 132 130 128 125 123 119 115 112 110 109 105 101 93 85 85 91 89 82 76 68 58 52 51 46 47 56 68 75 71 73
253 217 171 220 264 342 38 114 115 101 104 109 119 126 131 129 128 127 125 123 122 118 113 110 109 108 106 96 87 84 83 82 73 63 54 49 49 52 48 44 53 77 85 127
237 196 171 209 222 137 121 118 120 118 120 124 121 114 119 126 127 125 122 122 122 120 117 113 110 109 105 99 92 83 80 81 76 60 46 42 41 40 43 47 42 43 62 66
Height
1498 1504 1507 1501 1498 1498 1497 1496 1494 1484 1475 1479 1486 1487 1486 1485 1487 1489 1491 1493 1496 1497 1499 1501 1503 1506 1508 1511 1515 1518 1521 1525 1529 1531 1534 1536 1540 1542 1545 1546 1547 1548 1549 1550
1503 1504 1493 1490 1489 1489 1490 1493 1491 1483 1476 1482 1488 1489 1486 1484 1486 1487 1489 1492 1494 1498 1499 1501 1502 1505 1506 1510 1513 1517 1520 1524 1527 1530 1533 1536 1539 1542 1544 1545 1546 1547 1548 1549
1503 1493 1487 1487 1486 1488 1486 1488 1486 1485 1483 1486 1489 1496 1490 1486 1485 1488 1490 1491 1493 1495 1497 1500 1502 1504 1506 1509 1512 1515 1518 1522 1525 1529 1532 1535 1538 1541 1543 1544 1546 1547 1548 1549
1494 1486 1486 1487 1485 1483 1490 1476 1476 1479 1491 1504 1498 1512 1497 1489 1486 1487 1489 1491 1492 1494 1496 1498 1500 1502 1505 1507 1511 1514 1517 1521 1524 1528 1531 1533 1536 1538 1541 1543 1545 1546 1548 1549
1490 1483 1484 1486 1480 1477 1479 1472 1475 1482 1494 1506 1505 1511 1504 1491 1491 1488 1488 1489 1491 1492 1494 1497 1499 1500 1503 1506 1509 1512 1516 1519 1523 1527 1530 1533 1536 1538 1541 1543 1545 1546 1547 1548
1481 1476 1478 1477 1472 1471 1471 1476 1484 1493 1504 1518 1511 1512 1509 1495 1488 1485 1485 1486 1488 1490 1493 1496 1498 1500 1503 1506 1508 1511 1514 1518 1522 1525 1529 1532 1535 1537 1540 1542 1544 1545 1547 1548
1485 1476 1471 1470 1474 1470 1472 1491 1511 1515 1524 1523 1509 1510 1505 1485 1480 1480 1481 1483 1485 1488 1491 1494 1497 1499 1502 1504 1506 1509 1512 1516 1519 1523 1527 1530 1533 1536 1538 1541 1542 1544 1546 1547
1495 1490 1470 1464 1468 1474 1474 1486 1512 1523 1525 1520 1510 1511 1496 1479 1477 1477 1478 1480 1483 1486 1489 1492 1495 1497 1500 1502 1504 1507 1511 1514 1518 1521 1525 1529 1532 1535 1538 1540 1541 1543 1545 1546
1486 1484 1461 1458 1457 1462 1473 1480 1483 1502 1508 1520 1516 1505 1491 1479 1478 1478 1479 1481 1483 1485 1488 1490 1493 1496 1498 1500 1503 1506 1510 1513 1517 1520 1523 1527 1531 1533 1536 1539 1541 1542 1544 1545
1467 1478 1463 1455 1455 1456 1461 1470 1486 1500 1514 1522 1516 1509 1503 1486 1481 1479 1480 1480 1481 1484 1486 1489 1492 1494 1497 1499 1502 1505 1509 1512 1515 1519 1522 1525 1528 1532 1535 1537 1539 1541 1542 1544
1460 1473 1467 1461 1463 1465 1465 1472 1482 1495 1500 1516 1523 1510 1480 1479 1476 1477 1477 1478 1479 1482 1484 1487 1490 1493 1495 1498 1501 1504 1507 1510 1514 1517 1520 1524 1527 1530 1533 1535 1537 1539 1541 1542
1456 1468 1476 1467 1455 1451 1456 1465 1477 1494 1498 1500 1508 1502 1470 1471 1472 1474 1475 1476 1478 1480 1482 1485 1488 1491 1494 1497 1500 1503 1506 1509 1512 1516 1519 1522 1525 1528 1531 1533 1535 1537 1539 1540
1457 1470 1484 1479 1470 1459 1459 1462 1468 1479 1491 1499 1504 1494 1469 1469 1471 1473 1474 1475 1477 1479 1481 1484 1486 1489 1492 1495 1498 1501 1504 1507 1511 1514 1517 1521 1524 1526 1529 1531 1533 1535 1536 1537
1453 1466 1475 1482 1473 1462 1461 1459 1462 1474 1489 1492 1487 1480 1472 1470 1470 1471 1472 1474 1476 1478 1480 1482 1484 1487 1490 1493 1496 1499 1502 1506 1509 1512 1515 1518 1521 1524 1526 1528 1530 1532 1533 1533
1457 1467 1464 1458 1452 1453 1453 1453 1455 1463 1469 1477 1473 1471 1467 1464 1466 1468 1471 1473 1475 1478 1480 1481 1483 1486 1488 1491 1495 1498 1501 1504 1508 1510 1513 1516 1519 1521 1523 1525 1526 1528 1529 1529
1460 1466 1464 1459 1450 1449 1450 1447 1448 1452 1455 1460 1462 1466 1459 1461 1465 1468 1470 1472 1474 1477 1479 1481 1483 1485 1488 1490 1493 1496 1500 1503 1506 1508 1511 1513 1516 1518 1520 1521 1523 1524 1524 1525
1463 1466 1470 1470 1457 1454 1460 1449 1447 1448 1446 1451 1460 1460 1458 1462 1465 1467 1469 1471 1474 1476 1479 1480 1482 1484 1487 1490 1493 1495 1498 1501 1504 1506 1508 1511 1513 1515 1517 1518 1520 1520 1520 1520
1461 1465 1471 1472 1466 1474 1457 1442 1441 1444 1446 1444 1446 1451 1455 1460 1465 1468 1470 1472 1475 1477 1479 1481 1482 1484 1487 1490 1492 1495 1497 1500 1502 1504 1507 1509 1511 1512 1514 1515 1516 1516 1516 1516
1452 1459 1468 1474 1474 1465 1452 1445 1445 1449 1453 1446 1447 1453 1459 1462 1467 1473 1474 1475 1476 1478 1480 1482 1484 1485 1487 1490 1493 1495 1497 1500 1502 1504 1506 1508 1509 1510 1511 1511 1512 1513 1513 1512
1451 1454 1463 1469 1471 1471 1456 1446 1442 1446 1458 1450 1447 1451 1457 1460 1471 1477 1477 1476 1479 1480 1483 1485 1487 1488 1490 1492 1494 1496 1498 1501 1503 1505 1507 1508 1508 1509 1509 1510 1510 1511 1510 1510
1459 1460 1462 1465 1467 1458 1450 1445 1444 1458 1456 1450 1448 1450 1455 1460 1465 1472 1475 1477 1480 1482 1485 1487 1489 1491 1493 1495 1497 1498 1500 1502 1504 1506 1507 1508 1508 1509 1509 1509 1509 1509 1509 1509
1460 1461 1462 1462 1466 1461 1446 1445 1449 1449 1446 1448 1450 1452 1456 1460 1467 1471 1475 1479 1481 1484 1488 1490 1491 1493 1496 1498 1499 1500 1502 1505 1506 1507 1508 1508 1509 1509 1509 1509 1509 1509 1509 1509
1455 1455 1455 1455 1455 1448 1445 1443 1444 1444 1445 1447 1450 1452 1456 1461 1467 1473 1477 1481 1484 1487 1490 1492 1494 1496 1499 1501 1502 1503 1506 1507 1508 1509 1509 1510 1510 1510 1510 1509 1509 1509 1509 1508
1452 1450 1451 1450 1446 1444 1443 1443 1443 1444 1444 1447 1450 1454 1459 1464 1469 1475 1479 1483 1487 1491 1493 1496 1497 1499 1502 1505 1506 1507 1508 1510 1510 1510 1511 1511 1511 1511 1510 1510 1509 1508 1508 1507
1451 1449 1449 1447 1445 1442 1442 1443 1443 1445 1446 1450 1455 1458 1462 1465 1472 1477 1482 1486 1490 1494 1497 1499 1501 1503 1505 1507 1509 1510 1511 1511 1511 1512 1512 1512 1512 1511 1510 1509 1509 1507 1507 1506
1447 1447 1447 1447 1444 1443 1444 1444 1445 1447 1451 1454 1458 1463 1467 1470 1475 1480 1485 1489 1493 1496 1499 1502 1504 1506 1508 1509 1510 1512 1513 1513 1512 1512 1512 1512 1511 1511 1510 1509 1508 1506 1505 1504